Zurück zum Katalog

PSLV DEB

LostPO
NORAD 35338·DEBRIS·🇮🇳 India

Gestartet Oct 22, 2001 von Satish Dhawan Space Centre

Loading…

Nächste Überflüge (nächste 24 Stunden)

TLE

VeraltetSource: Space-Track

Epoche: Apr 17, 2014, 05:43 UTC

1 35338U 01049PW  14107.23843678 +.00007045 +00000-0 +19110-2 0  9990
2 35338 097.9127 182.5090 0178274 012.9460 349.5390 14.38874493537127

Verfolge PSLV DEB in Echtzeit mit AllMySat

Download on the App Store